EW3163 Weather Reports


Display with metric or nautical units.
time (UTC)temp
F
wind
direction
speed
MPH
gust
MPH
rain 1hr
in
rain 24hr
in
rain mn
in
humidity
%
barometer
mb
20260901003114 55 354 0.0 0.0 0.00 0.00 0.00 80 1015.0
20260901001607 56 342 0.0 1.0 0.00 0.00 0.00 79 1015.1
20260901000057 56 331 0.0 0.0 0.00 0.00 0.00 78 1015.2
20260831234603 56 9 0.0 0.0 0.00 0.00 0.00 78 1015.1
20260831233051 56 354 0.0 1.0 0.00 0.00 0.00 79 1015.0
20260831231549 56 332 0.0 1.0 0.00 0.00 0.00 79 1014.9
20260831230047 57 34 0.0 1.0 0.00 0.00 0.00 79 1014.9
20260831224543 57 333 0.0 1.0 0.00 0.00 0.00 79 1014.9
20260831223039 57 349 0.0 2.0 0.00 0.00 0.00 78 1014.8
20260831221540 57 5 0.0 1.0 0.00 0.00 0.00 78 1014.7
20260831220038 57 10 0.0 0.0 0.00 0.00 0.00 78 1014.6
20260831214530 57 13 0.0 1.0 0.00 0.07 0.00 79 1014.6
20260831213033 57 72 0.0 1.0 0.00 0.07 0.00 79 1014.6
20260831211522 57 122 0.0 0.0 0.00 0.07 0.00 79 1014.4
20260831210020 57 19 0.0 1.0 0.00 0.07 0.00 79 1014.3
20260831204514 57 3 0.0 1.0 0.00 0.19 0.00 78 1014.1
20260831203008 57 7 0.0 1.0 0.00 0.19 0.00 78 1013.9
20260831201503 58 3 0.0 1.0 0.00 0.19 0.00 78 1013.9
20260831200059 58 4 0.0 1.0 0.00 0.19 0.00 78 1013.6
20260831194629 58 4 0.0 0.0 0.00 0.19 0.00 79 1013.4
20260831193052 58 348 0.0 1.0 0.00 0.19 0.00 79 1013.2
20260831191547 59 18 0.0 1.0 0.00 0.19 0.00 78 1013.1
20260831190045 59 84 0.0 1.0 0.00 0.19 0.00 77 1012.7
20260831184554 60 27 0.0 2.0 0.00 0.19 0.00 75 1012.4
20260831183036 60 328 0.0 5.0 0.00 0.19 0.00 74 1011.9
20260831181527 61 291 0.0 2.0 0.00 0.19 0.00 73 1011.9
20260831180028 62 335 0.0 5.0 0.00 0.19 0.00 72 1011.6
20260831174516 63 23 0.0 6.0 0.00 0.19 0.00 72 1011.5
20260831173011 64 349 0.0 5.0 0.00 0.19 0.00 70 1011.2
20260831171507 65 356 0.0 4.0 0.00 0.19 0.00 68 1011.1
20260831170002 66 335 0.0 2.0 0.00 0.27 0.00 67 1010.9
20260831164557 66 350 0.0 2.0 0.00 0.27 0.00 69 1010.7
20260831163055 67 20 0.0 4.0 0.00 0.27 0.00 68 1010.5
20260831161549 67 38 0.0 4.0 0.00 0.27 0.00 67 1010.3
20260831160051 68 48 0.0 5.0 0.00 0.27 0.00 68 1010.1
20260831154542 68 86 0.0 5.0 0.00 0.27 0.00 68 1009.7
20260831153037 67 314 0.0 8.0 0.00 0.27 0.00 72 1009.7
20260831151533 68 319 0.0 4.0 0.00 0.27 0.00 68 1009.4
20260831150027 68 314 0.0 2.0 0.00 0.27 0.00 70 1009.2
20260831144529 68 1 0.0 7.0 0.00 0.27 0.00 72 1009.1
20260831143024 67 65 0.0 1.0 0.00 0.27 0.00 73 1009.0
20260831141513 68 336 1.0 6.0 0.00 0.27 0.00 69 1009.0
20260831140009 68 345 0.0 1.0 0.00 0.27 0.00 70 1008.7
20260831134505 68 98 0.0 0.0 0.00 0.27 0.00 71 1008.6
20260831133100 68 323 0.0 1.0 0.00 0.27 0.00 73 1008.5
20260831131556 67 284 0.0 2.0 0.00 0.27 0.00 73 1008.3
20260831130052 68 302 0.0 5.0 0.00 0.27 0.00 70 1008.1
20260831124546 68 20 0.0 4.0 0.00 0.27 0.00 72 1007.8
20260831123041 68 30 0.0 2.0 0.00 0.27 0.00 71 1007.6
20260831121538 68 33 0.0 1.0 0.00 0.27 0.00 71 1007.5
20260831120034 68 318 0.0 0.0 0.00 0.27 0.00 72 1007.3
20260831114532 67 31 0.0 1.0 0.00 0.27 0.00 75 1007.2
20260831113025 66 309 0.0 1.0 0.00 0.27 0.00 76 1007.1
20260831111520 65 339 0.0 0.0 0.00 0.27 0.00 80 1007.0
20260831110016 65 311 0.0 0.0 0.00 0.27 0.00 79 1006.8
20260831104512 65 325 0.0 0.0 0.00 0.27 0.00 80 1006.6
20260831103006 65 302 0.0 1.0 0.00 0.27 0.00 81 1006.4
20260831101502 63 310 0.0 0.0 0.00 0.27 0.00 86 1006.4
20260831094552 63 328 0.0 0.0 0.00 0.27 0.00 89 1006.1
20260831093048 62 300 0.0 1.0 0.00 0.27 0.00 92 1005.9
20260831091549 61 18 0.0 0.0 0.00 0.27 0.00 95 1005.7
20260831090039 60 314 0.0 0.0 0.00 0.27 0.00 96 1005.7
20260831084541 59 332 0.0 0.0 0.00 0.27 0.00 96 1005.4
20260831083029 59 98 0.0 0.0 0.00 0.27 0.00 96 1005.2
20260831081528 59 128 0.0 0.0 0.00 0.27 0.00 96 1005.0
20260831080020 58 128 0.0 0.0 0.00 0.27 0.00 96 1004.7
20260831074532 57 136 0.0 0.0 0.00 0.30 0.00 96 1004.5
20260831073020 56 113 0.0 0.0 0.00 0.30 0.00 96 1004.3
20260831071506 56 113 0.0 0.0 0.00 0.30 0.00 96 1004.2
20260831070002 55 113 0.0 0.0 0.00 0.31 0.00 96 1004.1
20260831064607 55 113 0.0 0.0 0.00 0.31 0.00 96 1003.8
20260831063056 0 0.0 0.0 0.00 0.31 0.00 1003.5
20260831061551 0 0.0 0.0 0.00 0.31 0.00 1003.4
20260831060059 0 0.0 0.0 0.00 0.31 0.00 1003.2
20260831054541 0 0.0 0.0 0.00 0.31 0.00 1003.0
20260831053036 0 0.0 0.0 0.00 0.31 0.00 1002.8
20260831051531 -90 121 0.0 0.0 0.00 0.31 0.00 100 1002.6
20260831050040 54 113 0.0 0.0 0.00 0.31 0.00 96 1002.5
20260831044525 54 113 0.0 0.0 0.00 0.31 0.00 96 1002.4
20260831043027 54 113 0.0 0.0 0.00 0.31 0.00 96 1002.3
20260831041525 55 113 0.0 0.0 0.00 0.31 0.00 96 1002.2
20260831040040 55 113 0.0 0.0 0.00 0.31 0.00 96 1002.1
20260831034529 55 113 0.0 0.0 0.00 0.31 0.00 96 1002.0
20260831033020 55 113 0.0 0.0 0.00 0.31 0.00 96 1002.0
20260831031517 55 113 0.0 0.0 0.00 0.31 0.00 96 1002.0
20260831030036 55 113 0.0 0.0 0.00 0.31 0.00 96 1001.9
20260831024517 55 113 0.0 0.0 0.00 0.31 0.00 96 1001.7
20260831023015 55 113 0.0 0.0 0.00 0.31 0.00 96 1001.5
20260831021516 55 113 0.0 0.0 0.00 0.31 0.00 96 1001.5
20260831020013 56 113 0.0 0.0 0.00 0.31 0.00 96 1001.5
20260831014510 56 113 0.0 0.0 0.00 0.31 0.00 96 1001.4
20260831013009 56 113 0.0 0.0 0.00 0.31 0.00 96 1001.4
20260831011506 56 113 0.0 0.0 0.00 0.31 0.00 96 1001.4
20260831010006 56 113 0.0 0.0 0.00 0.31 0.00 96 1001.5
20260831004506 56 113 0.0 0.0 0.00 0.31 0.00 96 1001.6